DELTA 1 DEB, 9568

Orbit data source: Space-Track

DELTA 1 DEB, 9568 is space debris in SSO originally from a launch on Tue, 06 Nov 1973 UTC launched from the Air Force Western Test Range (AFWTR). Debris objects in space refer to the collection of defunct objects orbiting the Earth. Examples of debris include non-operational satellites, rocket bodies, and fragments generated from explosions, collisions, or faulty payload assembly.

Loading next visibility...
Identifier
9568, 1973-086FW
Orbit
SSO
Country
Flag of USUS
Related business
Manufacturer
Unknown
Mission
Spacecraft
Bus & Motor
Unknown
Mass
Unknown
Launch date (UTC)
1973-11-06 (52 years ago)
Launch vehicle
Unknown
Launch site
Air Force Western Test Range (AFWTR)
Object type
Payload
Rocket body
Debris
Shape & HBR
Unknown shape, 0.1 m
Radar Cross Section
Small (<0.1 m²)

Expand to show TLE details & history
Last TLE update: 8 hours ago

TLE from 8 hours ago
0 DELTA 1 DEB
1  9568U 73086FW  25354.10274749 -.00000358  00000-0 -30083-2 0  9999
2  9568 101.4893 208.3900 0341949 145.2388   8.9399 12.08402311283350
Epoch: 2025-12-20T02:27Z
TLE epoch observation values (Epoch: 2025-12-20T02:27:57.383Z)
Latitude
24.67514°
Longitude
-92.20214°
Altitude
1,375.338 km
Speed
7.293 km/s
True Right ascension
02h 14m 53s
True Declination
24° 33' 19"
Sunlit
Object was in full shadow at epoch
Visualization orbit readout
Latitude
Unknown
Longitude
Unknown
Altitude
Unknown
Speed
Unknown
Apparent Right ascension
Unknown
Apparent Declination
Unknown
Sunlit
N/A
Visualization observer readout
Local Sidereal Time
09:26:43
Azimuth
Unknown
Elevation
Unknown
Doppler factor
Unknown
Orbital elements
Apogee altitude
1,915.257 km
Perigee altitude
1,366.827 km
Semi-major axis
8,019.179 km
Eccentricity
0.03419
Inclination
101.4893°
RAAN
208.39°
Arg. of periapsis
145.2388°
True anomaly
9.5756°
Mean anomaly
8.9399°
Eccentric anomaly
9.255°
Mean motion
3.02237 °/min
Orbital period
119.11 mins
BSTAR
-0.0030083
Loading maneuver chart data...
Computing Atmospheric mass density...
Loading historical data...
Loading historical data...
Loading historical data...
Loading historical data...
Loading historical data...
Loading historical data...
Loading historical data...

Documentation

Showing up to 5 results
|